[[{"header":{"parameterUnit":"m.s-1","parameterCategory":1,"la1":30.2991,"la2":30.254,"lo1":-89.0895,"lo2":-89.0444,"dy":0.0017,"dx":0.0017,"nx":28,"ny":28,"refTime":"2024-04-10T03:00:00:Z","depth":0,"parameterNumber":2,"parameterNumberName":"U-component_of_WINDS"},"data":[0,0,0,0,0,0,0,0,0,0,0,0,0,0,0,0,0,0,0,0,0,0,0,0,0,0,0,0,0,0,0,0,0,0,0,0,0,0,0,0,0,0,0,0,0,0,0,0,0,0,0,0,0,0,0,0,0,0,-0.1495,-0.1497,0,-0.1678,-0.168,-0.1682,-0.1799,-0.1799,-0.18,-0.1801,-0.1991,-0.1996,-0.2,0,0,0,0,0,0,0,0,0,0,0,0,0,-0.1249,-0.1253,-0.1495,-0.1497,-0.1499,-0.1678,-0.168,-0.1683,-0.1799,-0.1799,-0.18,-0.1801,-0.199,-0.1995,-0.2,0,0,0,0,0,0,0,0,0,0,0,0,0,-0.1386,-0.1254,-0.1494,-0.1579,-0.1588,-0.1677,-0.1681,-0.1684,-0.1798,-0.1799,-0.18,-0.1801,-0.1988,-0.1995,-0.2001,-0.2022,0,0,-0.2022,-0.2025,0,0,0,0,0,0,0,0,-0.1378,-0.1395,-0.1564,-0.1573,-0.1584,-0.1717,-0.1664,-0.1797,-0.1798,-0.1719,-0.1801,-0.1802,-0.1899,-0.1913,-0.1946,-0.2031,-0.2039,-0.2022,-0.2026,-0.2029,-0.2031,0,0,0,0,0,0,0,-0.1369,-0.1388,-0.1568,-0.1566,-0.1578,-0.1608,-0.1629,-0.169,-0.1801,-0.1726,-0.1734,-0.1754,-0.1905,-0.1939,-0.1951,-0.2042,-0.2022,-0.2028,-0.2032,-0.2035,-0.2156,-0.2156,0,0,0,0,0,0,-0.1345,-0.1379,-0.1562,-0.1573,-0.1481,-0.1612,-0.1635,-0.1673,-0.1801,-0.1821,-0.1753,-0.1759,-0.1927,-0.1943,-0.1958,-0.1992,-0.2029,-0.2035,-0.2039,-0.2157,-0.2156,-0.2155,0,0,0,0,0,0,-0.134,-0.136,-0.1554,-0.1479,-0.1506,-0.1615,-0.1657,-0.1676,-0.171,-0.1822,-0.1843,-0.1767,-0.1928,-0.1949,-0.2006,-0.2001,-0.2038,-0.2044,-0.2158,-0.2157,-0.2156,-0.206,0,0,0,0,0,0,-0.1332,-0.1358,-0.1366,-0.1478,-0.1509,-0.1597,-0.1656,-0.1679,-0.1721,-0.173,-0.184,-0.186,-0.1931,-0.1995,-0.2012,-0.2011,-0.205,-0.2159,-0.2158,-0.2156,-0.2064,-0.2056,-0.2048,0,0,0,0,0,-0.1323,-0.1332,-0.1366,-0.1387,-0.1522,-0.1597,-0.1615,-0.1696,-0.172,-0.173,-0.1802,-0.1856,-0.1998,-0.2,-0.202,-0.202,-0.216,-0.2158,-0.2156,-0.2068,-0.2057,-0.2049,0,0,0,0,0,0,-0.1218,-0.1348,-0.1387,-0.1433,-0.1502,-0.1616,-0.1631,-0.1682,-0.1747,-0.1753,-0.1852,-0.1876,-0.1923,-0.1978,-0.1977,-0.2048,-0.2085,-0.2088,-0.2011,-0.2002,-0.1994,-0.1981,-0.2055,0,0,0,0,0,-0.1199,-0.1249,-0.1361,-0.139,-0.1423,-0.152,-0.1556,-0.1613,-0.169,-0.172,-0.1796,-0.187,-0.1931,-0.197,-0.2032,-0.2072,-0.2099,-0.2083,-0.2075,-0.2068,-0.2069,-0.2095,-0.209,-0.215,-0.215,-0.215,0,0,-0.1163,-0.1241,-0.1266,-0.1371,-0.1432,-0.1482,-0.1545,-0.1595,-0.1633,-0.1728,-0.1787,-0.1845,-0.1934,-0.1982,-0.2008,-0.2029,-0.2058,-0.2066,-0.2059,-0.2064,-0.2093,-0.2087,-0.2082,-0.2148,-0.2149,-0.2149,0,0,-0.1122,-0.1185,-0.1217,-0.1277,-0.1368,-0.1433,-0.144,-0.1546,-0.1588,-0.1648,-0.1721,-0.1769,-0.1872,-0.1933,-0.1977,-0.1959,-0.2012,-0.1977,-0.1936,-0.1961,-0.1956,-0.1953,-0.1947,-0.1944,-0.1977,-0.1977,-0.1977,0,-0.1066,-0.1143,-0.1227,-0.1273,-0.1318,-0.1405,-0.1439,-0.1493,-0.16,-0.1629,-0.1652,-0.1784,-0.185,-0.1914,-0.191,-0.1943,-0.1956,-0.1965,-0.195,-0.1947,-0.1945,-0.1941,-0.1939,-0.1972,-0.1973,-0.1973,-0.1974,0,-0.1069,-0.1122,-0.1137,-0.1237,-0.1283,-0.1323,-0.1414,-0.1452,-0.1504,-0.1566,-0.1627,-0.1709,-0.179,-0.181,-0.1861,-0.1882,-0.1893,-0.1931,-0.197,-0.1933,-0.1931,-0.193,-0.1965,-0.1967,-0.1969,-0.197,0,0,-0.0968,-0.1114,-0.1118,-0.1165,-0.1272,-0.1315,-0.1359,-0.1437,-0.1468,-0.1539,-0.1579,-0.1665,-0.1701,-0.1751,-0.181,-0.1832,-0.1814,-0.1868,-0.1872,-0.1856,-0.1843,-0.1814,-0.1811,-0.1849,-0.1849,-0.1849,-0.1836,0,-0.0944,-0.1026,-0.1103,-0.1158,-0.1208,-0.1292,-0.1331,-0.1401,-0.1461,-0.1513,-0.158,-0.164,-0.1682,-0.1713,-0.1738,-0.181,-0.1813,-0.1813,-0.1889,-0.1891,-0.1865,-0.181,-0.178,-0.1763,-0.1836,-0.1836,-0.1836,0,-0.0927,-0.0993,-0.1052,-0.1155,-0.1179,-0.1212,-0.1291,-0.1339,-0.1421,-0.1463,-0.1519,-0.1581,-0.1633,-0.1666,-0.174,-0.1738,-0.1774,-0.1814,-0.1816,-0.1827,-0.1861,-0.182,-0.176,-0.1757,-0.1835,-0.1835,-0.1835,0,-0.0848,-0.0952,-0.1001,-0.1039,-0.1159,-0.1181,-0.1232,-0.1315,-0.1358,-0.1427,-0.1456,-0.153,-0.1571,-0.1628,-0.1709,-0.1725,-0.1775,-0.1814,-0.1813,-0.181,-0.182,-0.1818,-0.1765,-0.1841,-0.1841,-0.1841,-0.1841,0,-0.0814,-0.0847,-0.0968,-0.0998,-0.1038,-0.1127,-0.1165,-0.1224,-0.1297,-0.1342,-0.1419,-0.1459,-0.1564,-0.1617,-0.1681,-0.1733,-0.1751,-0.1788,-0.1804,-0.1781,-0.1777,-0.1807,-0.181,-0.1841,-0.1841,-0.1841,-0.1841,0,-0.0733,-0.0815,-0.0874,-0.0983,-0.1011,-0.1036,-0.113,-0.1164,-0.1228,-0.1283,-0.1301,-0.1402,-0.1469,-0.1556,-0.165,-0.1693,-0.1738,-0.1763,-0.171,-0.172,-0.1714,-0.1713,-0.1678,-0.1679,-0.1753,-0.1752,-0.1751,0,-0.0706,-0.0734,-0.0845,-0.088,-0.0928,-0.0983,-0.1027,-0.1116,-0.1158,-0.1254,-0.1276,-0.1348,-0.1411,-0.1514,-0.1596,-0.1669,-0.1698,-0.168,-0.1709,-0.1685,-0.1699,-0.1696,-0.17,-0.1673,-0.1672,-0.1671,-0.167,0,-0.065,-0.0689,-0.0748,-0.0821,-0.087,-0.0933,-0.0999,-0.1023,-0.1126,-0.117,-0.1238,-0.1287,-0.1383,-0.1454,-0.1537,-0.1593,-0.1649,-0.166,-0.1664,-0.1641,-0.1609,-0.1628,-0.1691,-0.1661,-0.1662,-0.1663,-0.1663,-0.1663,-0.0597,-0.0625,-0.0708,-0.0771,-0.083,-0.089,-0.0926,-0.0995,-0.1053,-0.1137,-0.1186,-0.1253,-0.1336,-0.1454,-0.1506,-0.1561,-0.1582,-0.1587,-0.1589,-0.1589,-0.1582,-0.1599,-0.1576,-0.1577,-0.1577,-0.1577,-0.1578,0,-0.0546,-0.0603,-0.066,-0.0749,-0.0799,-0.0846,-0.0922,-0.0961,-0.1018,-0.109,-0.115,-0.1229,-0.1298,-0.1386,-0.1462,-0.1489,-0.1517,-0.1506,-0.1506,-0.1518,-0.1558,-0.1547,-0.1482,-0.1482,-0.1482,-0.1482,-0.1482,-0.1482,-0.0525,-0.0576,-0.0625,-0.0706,-0.0764,-0.0829,-0.0868,-0.0924,-0.0982,-0.1066,-0.1124,-0.118,-0.1259,-0.1341,-0.1408,-0.1432,-0.1457,-0.1438,-0.147,-0.1506,-0.1515,-0.1523,-0.1514,-0.1443,-0.1442,-0.1426,-0.1426,-0.1426]},{"header":{"parameterUnit":"m.s-1","parameterCategory":1,"la1":30.2991,"la2":30.254,"lo1":-89.0895,"lo2":-89.0444,"dy":0.0017,"dx":0.0017,"nx":28,"ny":28,"refTime":"2024-04-10T03:00:00:Z","depth":0,"parameterNumber":3,"parameterNumberName":"V-component_of_WINDS"},"data":[0,0,0,0,0,0,0,0,0,0,0,0,0,0,0,0,0,0,0,0,0,0,0,0,0,0,0,0,0,0,0,0,0,0,0,0,0,0,0,0,0,0,0,0,0,0,0,0,0,0,0,0,0,0,0,0,0,0,10.064,10.0643,0,10.0921,10.0924,10.0927,10.0952,10.0949,10.0946,10.0943,10.1227,10.1237,10.1247,0,0,0,0,0,0,0,0,0,0,0,0,0,10.0122,10.0131,10.064,10.0643,10.0647,10.092,10.0924,10.0928,10.0952,10.0949,10.0945,10.0941,10.1223,10.1236,10.1248,0,0,0,0,0,0,0,0,0,0,0,0,0,10.0369,10.0134,10.0639,10.0692,10.07,10.092,10.0924,10.0929,10.0953,10.0948,10.0944,10.094,10.1219,10.1234,10.125,10.1435,0,0,10.1297,10.1304,0,0,0,0,0,0,0,0,10.0355,10.0388,10.0681,10.0689,10.0698,10.0897,10.0846,10.1099,10.0954,10.0857,10.0943,10.0938,10.112,10.1144,10.1206,10.1449,10.1461,10.1299,10.1308,10.1315,10.1319,0,0,0,0,0,0,0,10.0338,10.0376,10.0751,10.0685,10.0695,10.0701,10.0731,10.0894,10.101,10.0865,10.0867,10.09,10.1124,10.1191,10.1213,10.1465,10.1298,10.1312,10.1321,10.1328,10.1876,10.1881,0,0,0,0,0,0,10.0311,10.0362,10.0742,10.0759,10.0512,10.0714,10.0748,10.0837,10.1008,10.103,10.0904,10.09,10.1167,10.1195,10.1223,10.1453,10.1315,10.1329,10.1338,10.187,10.1877,10.1882,0,0,0,0,0,0,10.03,10.0345,10.0731,10.0562,10.0611,10.0728,10.0828,10.0845,10.0912,10.1038,10.1059,10.0951,10.1164,10.1201,10.1383,10.1463,10.1336,10.135,10.1864,10.1872,10.188,10.1913,0,0,0,0,0,0,10.0285,10.0341,10.0413,10.0563,10.062,10.0887,10.0833,10.0854,10.094,10.0938,10.1088,10.1108,10.1164,10.136,10.1398,10.1482,10.1362,10.1858,10.1868,10.1877,10.1906,10.1922,10.1935,0,0,0,0,0,10.0267,10.041,10.0417,10.0462,10.0713,10.0891,10.0924,10.0986,10.0946,10.1019,10.11,10.1104,10.1448,10.1378,10.1422,10.1512,10.1853,10.1865,10.1876,10.1899,10.1918,10.1935,0,0,0,0,0,0,10.0265,10.0431,10.044,10.0636,10.075,10.0895,10.0989,10.1004,10.113,10.1123,10.1193,10.1227,10.1406,10.1477,10.1396,10.1701,10.1646,10.1667,10.1648,10.1668,10.1682,10.1662,10.1375,0,0,0,0,0,10.0288,10.042,10.0557,10.0717,10.0774,10.0872,10.0952,10.099,10.111,10.1158,10.1252,10.1367,10.1502,10.1588,10.1719,10.1916,10.1949,10.1999,10.2014,10.2025,10.2043,10.2154,10.2178,10.1921,10.1921,10.1921,0,0,10.0335,10.0442,10.0521,10.072,10.0812,10.0947,10.0912,10.1056,10.1156,10.1179,10.1357,10.143,10.1564,10.1754,10.1843,10.1819,10.2121,10.204,10.2048,10.206,10.2168,10.2193,10.2214,10.1929,10.1928,10.1927,0,0,10.0492,10.0586,10.0731,10.0824,10.0966,10.103,10.1065,10.1209,10.1259,10.1439,10.146,10.158,10.1809,10.1904,10.1982,10.2177,10.2185,10.2217,10.2294,10.2401,10.2421,10.244,10.251,10.2534,10.2234,10.2234,10.2234,0,10.0533,10.0738,10.0802,10.0947,10.1034,10.1062,10.1209,10.1297,10.1473,10.1532,10.1502,10.1793,10.1884,10.2098,10.2146,10.2208,10.225,10.22,10.2413,10.2432,10.245,10.2518,10.2544,10.2237,10.2237,10.2236,10.2236,0,10.0783,10.0925,10.1024,10.1196,10.1294,10.1438,10.1524,10.1616,10.1645,10.1713,10.1897,10.2008,10.2162,10.2215,10.2245,10.2435,10.2415,10.2399,10.2345,10.2477,10.2542,10.2568,10.2241,10.224,10.2239,10.2239,0,0,10.0945,10.1152,10.1188,10.1266,10.1425,10.1536,10.1681,10.1834,10.1912,10.2032,10.2157,10.2351,10.2338,10.2426,10.2467,10.2561,10.2709,10.2534,10.2538,10.2563,10.2926,10.2938,10.2968,10.2716,10.2721,10.2725,10.2916,0,10.112,10.1383,10.1446,10.1671,10.1803,10.1833,10.196,10.2071,10.2138,10.2259,10.2333,10.247,10.2441,10.2495,10.259,10.2671,10.2783,10.2658,10.2832,10.2838,10.2799,10.3002,10.3015,10.3189,10.2941,10.2946,10.2949,0,10.136,10.1488,10.1726,10.1869,10.1927,10.2041,10.2186,10.2302,10.2428,10.2471,10.2571,10.2603,10.2756,10.2694,10.2906,10.282,10.2894,10.2945,10.2954,10.2973,10.2902,10.3027,10.3246,10.3272,10.2989,10.2986,10.2983,0,10.1456,10.1688,10.1861,10.1927,10.2098,10.2177,10.2252,10.2374,10.2462,10.2589,10.2647,10.2789,10.2867,10.2977,10.3046,10.2994,10.3253,10.3197,10.3292,10.3291,10.3346,10.3342,10.3581,10.3393,10.3392,10.3392,10.3391,0,10.1645,10.179,10.1907,10.2013,10.2177,10.2247,10.2407,10.2481,10.259,10.2712,10.2745,10.2858,10.2942,10.3066,10.3121,10.3289,10.3324,10.3362,10.3375,10.336,10.3355,10.341,10.34,10.3399,10.3397,10.3396,10.3395,0,10.178,10.1864,10.2055,10.2202,10.2242,10.2356,10.2482,10.2586,10.2654,10.2808,10.2847,10.2955,10.3103,10.3183,10.3368,10.3405,10.3594,10.3599,10.3552,10.3557,10.3649,10.364,10.3933,10.3976,10.3758,10.376,10.3761,0,10.1896,10.2009,10.2168,10.2253,10.233,10.2465,10.2556,10.263,10.2723,10.2876,10.2962,10.3113,10.3238,10.3473,10.3567,10.3709,10.3719,10.3812,10.3741,10.3723,10.3722,10.3715,10.3727,10.3825,10.3827,10.3828,10.383,0,10.2093,10.213,10.226,10.2406,10.2514,10.2632,10.2748,10.2815,10.2908,10.3011,10.3165,10.3261,10.3452,10.3601,10.3751,10.3827,10.3845,10.3852,10.3882,10.3868,10.3836,10.3856,10.3587,10.3845,10.3843,10.3842,10.3841,10.3841,10.2223,10.2326,10.2455,10.2599,10.2695,10.2804,10.291,10.2992,10.3122,10.3284,10.3319,10.3481,10.3605,10.3809,10.3889,10.4017,10.3998,10.4041,10.4052,10.4062,10.4067,10.3815,10.4044,10.4044,10.4043,10.4043,10.4043,0,10.2423,10.2508,10.2641,10.2804,10.2918,10.2926,10.3055,10.315,10.3293,10.3408,10.353,10.3707,10.3852,10.3958,10.4107,10.4188,10.42,10.4225,10.422,10.4238,10.4074,10.4034,10.4213,10.4213,10.4213,10.4213,10.4213,10.4213,10.2541,10.2715,10.2766,10.2988,10.3072,10.3232,10.3306,10.3406,10.3499,10.3695,10.3817,10.3886,10.3998,10.4155,10.4289,10.4316,10.4369,10.4394,10.4422,10.4267,10.4249,10.4232,10.4194,10.4404,10.4405,10.4575,10.4577,10.4578]}]]